CAPE
0 0 0 0 0 0 0 0 0 0 0 0 0 0 0 0 0 0 0 0 0 0 0 0 0 0 0 0 0 0 0 0 0 0 0 0 0 0 0 0 0 0 0
0 0 0 0 0 0 0 0 0 0 0 0 0 0 0 0 0 0 0 0 0 0 0 0 0 0 0 0 0 0 0 0 0 0 0 0 0 0 0 0 0 0 0
0 0 0 0 0 0 0 0 0 0 0 0 0 0 0 0 0 0 0 0 0 0 0 0 0 0 0 0 0 0 0 0 0 0 0 0 0 0 0 0 0 0 0
0 0 0 0 0 0 0 0 0 0 0 0 0 0 0 0 0 0 0 0 0 0 0 0 0 0 0 0 0 0 0 0 0 0 0 0 0 0 0 0 0 0 0
0 0 0 0 0 0 0 0 0 0 0 0 0 0 0 0 0 0 0 0 0 0 0 0 0 0 0 0 0 0 0 0 0 0 0 0 0 0 0 0 0 0 0
0 0 0 0 0 0 0 0 0 0 0 0 0 0 0 0 0 0 0 0 0 0 0 0 0 0 0 0 0 0 0 0 0 0 0 0 0 0 0 0 0 0 0
0 0 0 0 0 0 0 0 0 0 0 0 0 0 0 0 0 0 0 0 0 0 0 0 0 0 0 0 0 0 0 0 0 0 0 0 0 0 0 0 0 0 0
0 0 0 0 0 0 0 0 0 0 0 0 0 0 0 0 0 0 0 0 0 0 0 0 0 0 0 0 0 0 0 0 0 0 0 0 0 0 0 0 0 0 0
0 0 0 1 0 0 0 0 0 0 0 0 0 0 0 0 0 0 0 0 0 0 0 0 0 0 0 7 0 0 0 0 2 4 2 3 1 0 0 0 0 0 0
0 0 0 0 0 0 0 0 0 0 0 0 0 0 0 0 0 0 0 0 0 0 0 0 0 0 10 7 0 0 0 0 0 0 0 3 9 1 22 0 0 0 0
0 0 0 0 0 0 0 0 0 0 0 0 0 0 0 0 0 2 0 0 0 0 0 0 0 17 22 17 4 0 0 0 1 0 0 0 0 0 0 0 0 0 0
0 0 1 0 0 0 0 0 0 0 0 0 0 0 0 0 0 7 3 1 3 0 0 0 0 28 22 13 4 3 3 1 0 0 0 0 0 0 0 0 0 0 0
0 0 1 0 0 0 0 0 0 0 0 0 0 0 0 0 0 14 10 11 13 0 0 0 3 14 26 10 17 9 0 0 0 0 0 0 0 0 0 0 0 0 0
0 0 0 0 0 0 0 0 0 0 0 0 0 0 0 0 0 0 0 2 4 0 1 1 2 3 3 1 0 2 0 0 0 0 0 0 0 0 0 0 0 0 0
0 0 0 0 0 0 0 0 0 0 0 0 0 0 0 0 0 0 2 1 1 0 0 0 1 0 1 2 0 0 0 0 0 0 0 0 0 0 0 0 0 0 0
0 0 0 0 0 0 0 0 8 5 2 0 0 0 0 0 0 2 5 8 10 6 1 1 0 0 0 0 0 0 0 0 0 0 0 0 0 0 0 0 0 0 0
0 0 0 0 0 0 0 0 0 0 1 1 2 2 1 2 2 2 2 7 8 10 0 0 0 0 0 0 0 0 0 0 0 0 0 0 0 0 0 0 0 0 0
0 0 0 0 0 0 0 0 0 0 0 0 2 0 1 2 2 6 4 0 0 0 0 0 0 0 0 0 0 0 0 0 0 0 0 0 0 0 0 0 0 0 0
0 0 0 0 0 0 0 0 0 0 0 0 0 0 0 1 1 1 0 0 0 0 0 0 0 0 0 0 0 0 0 0 0 0 0 0 0 0 0 0 0 0 0
0 0 0 0 0 0 0 0 0 0 0 0 0 0 0 0 0 0 0 0 0 0 0 0 0 0 0 0 0 0 0 0 0 0 0 0 0 0 0 0 0 0 0
0 0 0 0 0 0 0 0 0 0 0 0 0 0 0 0 0 0 0 0 0 0 0 0 0 0 0 0 0 0 0 0 0 0 0 0 0 0 0 0 0 0 0
0 0 0 0 0 0 0 0 0 0 0 0 0 0 0 0 0 0 0 0 0 0 0 0 0 0 0 0 0 0 0 0 0 0 0 0 0 0 0 0 0 0 0
0 0 0 0 0 0 0 0 0 0 0 0 0 0 0 0 0 0 0 0 0 0 0 0 0 0 0 0 0 0 0 0 0 0 0 0 0 0 0 0 0 0 0
0 0 0 0 0 0 0 0 0 0 0 0 0 0 0 0 0 0 0 0 0 0 0 0 0 0 0 0 0 0 0 0 0 0 0 0 0 0 0 0 0 0 0
0 0 0 0 0 0 0 0 0 0 0 0 0 0 0 0 0 0 0 0 0 0 0 0 0 0 0 0 0 0 0 0 0 0 0 0 0 0 0 0 0 0 0
0 0 0 0 0 0 0 0 0 0 0 0 0 0 0 0 0 0 0 0 0 0 0 0 0 0 0 0 0 0 0 0 0 0 0 0 0 0 0 0 0 0 0
CIN
0 0 0 0 0 0 0 0 0 0 0 0 0 0 0 0 0 0 0 0 0 0 0 0 0 0 0 0 0 0 0 0 0 0 0 0 0 0 0 0 0 0 0
0 0 0 0 0 0 0 0 0 0 0 0 0 0 0 0 0 0 0 0 0 0 0 0 0 0 0 0 0 0 0 0 0 0 0 0 0 0 0 0 0 0 0
0 0 0 0 0 0 0 0 0 0 0 0 0 0 0 0 0 0 0 0 0 0 0 0 0 0 0 0 0 0 0 0 0 0 0 0 0 0 0 0 0 0 0
0 0 0 0 0 0 0 0 0 0 0 0 0 0 0 0 0 0 0 0 0 0 0 0 0 0 0 0 0 0 0 0 0 0 0 0 0 0 0 0 0 0 0
0 0 0 0 0 0 0 0 0 0 0 0 0 0 0 0 0 0 0 0 0 0 0 0 0 0 0 0 0 0 0 0 0 0 0 0 0 0 0 0 0 0 0
0 0 0 0 0 0 0 0 0 0 0 0 0 0 0 0 0 0 0 0 0 0 0 0 0 0 0 0 0 0 0 0 0 0 0 0 0 0 0 0 0 0 0
0 0 0 0 0 0 0 0 0 0 0 0 0 0 0 0 0 0 0 0 0 0 0 0 0 0 0 0 0 0 0 0 0 0 0 0 0 0 0 0 0 0 0
0 0 0 0 0 0 0 0 0 0 0 0 0 0 0 0 0 0 0 0 0 0 0 0 0 0 0 0 0 0 0 0 0 0 0 0 0 0 0 0 0 0 0
0 0 0 0 0 0 0 0 0 0 0 0 0 0 0 0 0 0 0 0 0 0 0 0 0 0 0 0 0 0 0 0 0 0 0 0 0 0 0 0 0 0 0
0 0 0 0 0 0 0 0 0 0 0 0 0 0 0 0 0 0 0 0 0 0 0 0 0 0 0 0 0 0 0 0 0 0 0 0 0 0 0 0 0 0 0
0 0 0 0 0 0 0 0 0 0 0 0 0 0 0 0 0 0 0 0 0 0 0 0 0 0 0 0 0 0 0 0 0 0 0 0 0 0 0 0 0 0 0
0 0 0 0 0 0 0 0 0 0 0 0 0 0 0 0 0 0 0 0 0 0 0 0 0 0 0 0 0 0 0 0 0 0 0 0 0 0 0 0 0 0 0
0 0 0 0 0 0 0 0 0 0 0 0 0 0 0 0 -1 0 0 0 0 0 0 0 0 0 0 -4 -2 0 0 0 0 0 0 0 0 0 0 0 0 0 0
0 0 0 0 0 0 0 0 0 0 0 0 0 0 0 0 0 0 0 0 0 0 0 0 0 0 0 0 0 0 -1 0 0 0 0 0 0 0 0 0 0 0 0
0 0 0 0 0 0 0 0 0 0 0 0 0 0 0 0 0 0 0 -2 0 0 0 0 0 0 0 0 -1 0 0 0 0 0 0 0 0 0 0 0 0 0 0
0 0 0 0 0 0 0 0 0 0 0 0 0 0 0 0 0 0 0 0 0 0 0 0 0 0 -1 0 0 0 0 0 0 0 0 0 0 0 0 0 0 0 0
0 0 0 0 0 0 0 0 0 0 0 0 0 0 0 0 0 0 0 0 0 0 0 0 0 0 0 0 0 0 0 0 0 0 0 0 0 0 0 0 0 0 0
0 0 0 0 0 0 0 0 0 0 0 0 0 0 0 0 0 0 0 0 0 0 0 0 0 0 0 0 0 0 0 0 0 0 0 0 0 0 0 0 0 0 0
0 0 0 0 0 0 0 0 0 0 0 0 0 0 0 0 0 0 0 0 0 0 0 0 0 0 0 0 0 0 0 0 0 0 0 0 0 0 0 0 0 0 0
0 0 0 0 0 0 0 0 0 0 0 0 0 0 0 0 0 0 0 0 0 0 0 0 0 0 0 0 0 0 0 0 0 0 0 0 0 0 0 0 0 0 0
0 0 0 0 0 0 0 0 0 0 0 0 0 0 0 0 0 0 0 0 0 0 0 0 0 0 0 0 0 0 0 0 0 0 0 0 0 0 0 0 0 0 0
0 0 0 0 0 0 0 0 0 0 0 0 0 -1 0 0 0 0 0 0 0 0 0 0 0 0 0 0 0 0 0 0 0 0 0 0 0 0 0 0 0 0 0
0 0 0 0 0 0 0 0 0 0 0 0 0 0 0 0 0 0 0 0 0 0 0 0 0 0 0 0 0 0 0 0 0 0 0 0 0 0 0 0 0 0 0
0 0 0 0 0 0 0 0 0 0 0 0 0 0 0 0 0 0 0 0 0 0 0 0 0 0 0 0 0 0 0 0 0 0 0 0 0 0 0 0 0 0 0
0 0 0 0 0 0 0 0 0 0 0 0 0 0 0 0 0 0 0 0 0 0 0 0 0 0 0 0 0 0 0 0 0 0 0 0 0 0 0 0 0 0 0
0 0 0 0 0 0 0 0 0 0 0 0 0 0 0 0 0 0 0 0 0 0 0 0 0 0 0 0 0 0 0 0 0 0 0 0 0 0 0 0 0 0 0
Wind_Speed
8 7 8 8 9 8 10 10 8 7 10 11 12 14 13 13 11 12 12 12 14 13 11 13 15 13 10 8 4 4 3 4 3 3 2 2 6 8 6 5 6 4 5
7 7 9 8 7 8 9 8 7 9 8 10 11 11 12 12 12 14 13 12 14 13 13 12 13 8 10 8 7 7 8 5 5 5 3 3 3 4 5 5 4 5 5
8 8 8 9 8 10 9 7 7 7 7 7 8 10 9 10 10 12 12 11 12 13 13 13 12 12 10 7 7 8 5 3 4 4 5 3 2 3 3 3 4 5 4
7 8 9 11 10 9 7 7 7 7 7 7 7 8 8 7 9 8 9 9 10 10 10 12 11 13 12 10 9 9 6 6 4 6 3 4 3 2 2 3 4 3 4
7 8 11 8 7 7 7 7 7 7 7 7 7 6 6 7 7 9 8 9 9 8 6 7 9 10 15 15 10 10 11 7 6 6 4 3 3 3 6 3 4 2 3
7 9 8 6 6 7 7 7 6 6 6 6 7 7 7 6 11 14 9 7 7 8 7 5 5 9 15 21 20 21 15 12 7 4 2 3 4 6 4 4 3 2 2
7 7 5 5 6 7 6 6 6 6 5 6 6 5 6 6 11 13 13 5 7 7 8 9 8 7 11 11 15 17 20 16 10 7 6 5 7 7 5 4 4 4 4
7 6 5 4 4 3 3 4 3 3 5 4 4 4 3 4 10 12 12 5 5 6 9 10 11 11 11 10 10 9 6 5 6 4 6 5 4 5 4 3 5 3 2
7 6 5 4 3 3 4 3 2 3 3 3 3 4 5 4 12 12 11 5 5 6 6 7 8 10 16 18 11 10 7 4 5 9 8 9 10 8 5 3 2 3 3
6 7 5 3 3 3 3 3 2 3 3 3 3 2 3 3 10 12 9 4 5 5 5 5 9 9 20 20 10 9 8 6 5 2 3 7 9 6 13 8 4 4 4
3 3 4 2 2 4 3 2 2 4 4 4 4 3 3 2 4 11 10 4 4 4 4 5 4 15 20 20 14 8 7 6 8 5 4 3 3 3 3 3 3 4 3
3 4 3 3 3 2 6 3 4 5 5 4 4 3 2 2 4 12 13 9 10 5 6 5 6 16 17 17 12 14 10 7 4 5 4 4 4 5 5 5 4 3 3
5 5 3 4 3 2 5 5 4 4 4 4 3 3 2 2 2 10 14 9 11 5 4 8 13 15 12 11 11 9 6 4 4 4 5 5 5 4 5 5 5 5 4
7 5 5 3 2 2 1 3 3 2 3 4 4 4 2 2 2 3 3 4 8 5 9 7 10 11 10 6 4 8 5 5 6 6 5 2 4 4 4 3 3 3 2
5 6 5 2 1 2 3 3 3 1 2 2 2 4 4 2 2 6 5 4 4 5 5 4 4 5 6 6 5 5 3 2 3 2 2 3 3 3 2 2 2 2 3
5 5 6 4 1 1 5 7 11 9 10 9 9 6 2 6 9 9 9 9 11 12 3 3 4 4 4 5 4 2 1 3 2 3 2 3 3 4 4 2 2 2 3
5 5 4 5 2 5 4 6 8 10 16 14 12 10 8 8 10 8 8 7 7 7 2 1 1 1 1 1 2 1 2 2 2 3 3 3 3 3 4 2 2 2 1
3 5 4 4 3 2 4 3 3 5 6 4 14 9 14 14 13 11 10 10 5 6 3 2 2 2 2 1 1 1 1 2 2 2 2 3 3 2 2 2 3 3 2
3 4 6 4 2 6 5 5 5 5 6 5 4 9 10 17 18 19 19 5 3 4 3 4 4 3 3 3 2 2 2 2 2 2 2 2 3 2 1 2 2 3 3
5 6 7 5 3 5 5 6 5 5 6 5 4 3 3 6 5 5 5 3 4 3 2 3 2 3 2 2 2 1 2 2 1 1 2 2 2 2 3 3 3 3 3
6 7 7 5 4 5 6 6 5 7 6 4 2 5 9 5 3 2 2 2 3 2 3 3 2 2 1 1 2 2 1 1 1 2 2 3 3 2 2 2 3 2 2
6 7 5 5 5 6 6 6 6 6 5 5 4 6 10 4 3 2 2 3 2 2 1 2 2 1 1 2 2 2 2 2 2 2 2 2 3 2 3 2 2 2 3
7 7 6 5 6 7 7 6 6 6 5 4 3 4 3 3 3 2 2 1 1 1 1 3 2 1 1 0 1 3 3 4 4 4 4 3 3 3 3 3 3 2 2
7 8 7 5 5 6 6 6 6 6 5 4 3 2 2 2 2 2 1 1 1 0 0 0 1 2 2 3 2 3 2 2 2 3 5 4 4 3 3 2 3 3 3
6 6 6 6 6 6 6 5 5 4 4 3 2 1 1 1 1 1 1 1 0 0 2 2 2 4 5 6 6 5 4 6 4 4 2 3 5 5 4 3 3 3 3
6 6 6 5 5 5 5 5 4 3 3 2 1 0 1 1 2 2 1 1 2 3 4 3 4 6 6 6 7 8 7 8 7 7 4 3 4 4 4 5 6 4 3
Wind_Direction
228 225 227 228 223 218 221 221 211 196 195 195 193 201 205 206 205 204 204 200 202 204 201 206 208 210 209 198 160 127 117 104 151 187 115 230 169 171 172 165 185 198 231
235 229 233 236 229 228 230 225 201 211 202 198 191 198 205 205 201 206 204 201 202 203 202 199 210 193 197 184 165 166 176 175 113 158 153 178 161 172 158 171 187 216 214
223 224 235 236 223 236 242 225 212 210 206 191 185 198 198 199 200 212 211 205 205 207 203 202 197 184 187 178 173 169 150 121 129 153 171 160 130 138 149 184 193 216 225
226 226 233 235 224 226 226 222 213 204 200 199 195 195 194 194 204 203 208 209 211 210 203 202 190 186 181 167 167 168 149 140 148 167 117 137 118 132 134 187 227 207 240
236 233 239 237 223 222 228 225 221 210 200 192 192 195 190 191 206 206 202 208 211 206 197 192 188 178 176 177 169 166 152 159 167 159 135 132 149 145 196 181 211 202 239
242 239 244 238 229 228 228 223 218 223 204 185 193 192 198 208 214 208 194 197 198 190 182 162 155 158 175 180 185 170 161 171 163 141 128 139 174 191 164 183 179 170 267
289 272 258 248 237 237 230 214 213 204 174 197 204 195 212 211 205 204 199 186 184 186 171 162 164 175 169 177 172 180 185 186 182 137 144 179 179 187 159 178 185 192 210
298 301 288 257 239 249 221 216 204 172 175 170 179 184 180 210 199 203 189 180 179 178 177 173 172 168 170 158 170 168 137 130 139 143 174 152 161 173 156 161 210 190 317
294 289 271 259 236 194 191 189 157 132 136 163 169 171 192 192 193 200 183 162 156 153 156 163 162 155 160 167 155 152 149 179 192 184 163 184 195 199 197 159 190 182 243
302 294 283 234 222 226 190 161 154 134 154 132 122 149 157 165 195 195 161 128 125 123 106 114 148 164 170 169 162 160 172 192 179 166 208 226 220 221 228 205 177 202 238
306 343 353 346 169 162 126 51 96 82 95 97 101 71 90 145 177 190 147 90 119 128 141 151 163 173 173 173 167 170 187 154 200 186 191 180 193 211 229 235 189 182 171
73 46 35 14 3 64 107 80 88 104 108 97 99 86 68 109 149 164 143 151 162 155 158 153 162 174 177 176 165 191 176 159 163 176 185 199 201 198 210 202 155 125 105
114 95 36 44 45 34 113 112 100 102 126 118 128 123 99 70 95 164 156 171 168 154 155 167 172 185 180 191 191 195 194 200 173 184 211 210 204 195 142 115 102 105 96
128 117 101 91 98 71 77 93 104 106 124 132 135 127 108 73 69 65 142 156 161 151 173 173 180 190 203 216 226 236 222 208 200 208 208 159 129 139 144 129 127 125 112
143 132 123 131 134 111 97 99 80 150 149 128 152 131 135 145 191 164 163 149 151 161 154 158 164 175 192 210 218 222 201 139 190 126 120 140 138 136 119 119 103 110 167
179 162 133 150 154 145 127 110 86 100 128 135 138 133 188 159 160 168 167 172 178 181 141 170 180 197 208 226 223 186 146 154 134 126 112 124 142 151 128 106 110 149 171
219 141 126 133 147 126 120 116 110 74 82 83 88 95 97 114 138 152 167 181 191 158 76 112 110 141 205 185 145 147 152 76 83 98 117 118 111 113 128 153 173 169 160
145 122 127 120 121 105 92 91 110 117 101 70 60 83 85 82 80 79 98 78 48 38 59 76 84 59 45 73 88 89 72 91 82 99 107 126 126 122 130 171 179 158 147
139 130 118 93 122 118 124 122 102 88 85 69 48 43 35 64 63 59 62 68 83 53 37 38 25 37 41 60 51 62 105 145 111 133 134 116 115 126 152 153 151 164 140
103 90 86 105 101 88 95 96 90 90 85 69 60 25 2 39 45 40 41 68 88 85 96 88 65 80 89 106 106 108 90 80 152 139 127 140 152 152 159 165 167 158 191
106 84 84 81 84 87 88 94 91 95 98 94 39 89 89 99 99 86 78 57 94 107 106 121 107 98 89 106 125 129 124 178 173 158 160 175 156 164 173 174 168 186 167
84 90 85 101 101 95 95 92 93 94 93 90 53 61 92 75 77 79 67 60 54 80 64 111 104 126 182 178 170 145 165 208 230 193 194 177 176 167 163 161 183 173 175
96 99 97 89 86 91 84 84 93 101 102 91 91 92 79 87 88 87 109 156 97 63 28 72 92 339 324 284 187 179 179 216 214 179 183 178 187 185 178 188 183 200 193
105 103 112 102 100 97 98 96 90 90 105 108 101 84 93 106 130 149 171 177 139 41 347 128 199 231 267 272 255 229 216 228 188 205 194 176 194 192 188 188 193 210 205
88 105 102 101 99 104 111 105 97 92 95 100 125 132 77 58 41 315 273 252 2 347 279 259 240 240 241 254 259 261 252 263 205 196 179 172 201 204 200 203 203 209 203
92 96 98 100 99 91 92 99 104 119 137 139 118 108 195 229 251 254 291 346 291 277 280 267 261 261 262 256 255 251 243 244 239 216 185 187 202 206 199 218 218 218 196